Location: Czerkiesy
(51.1082°N, 19.0116°E)
Time: 06:24:24
(UTC+00:00)

Daily predictions for brighter satellites

Satellite Brightness Start Highest point End
(mag) Time Altitude Azimuth Time Altitude Azimuth Time Altitude Azimuth
In-Cosmos 22 Rocket 4.4 19:24:43 10° S 19:30:24 58° E 19:36:01 10° NNE
Cosmos 2278 Rocket 4.3 19:28:04 10° WSW 19:33:10 33° NW 19:38:17 10° NNE
CZ-4 R/B 4.0 19:31:25 10° SW 19:33:41 15° W 19:35:57 10° NW
USA 215 4.1 19:30:32 10° ENE 19:36:52 54° N 19:43:12 10° WNW
Cosmos 1503 Rocket 4.0 19:33:15 10° S 19:38:20 62° ESE 19:43:26 10° NNE
Cosmos 2369 Rocket 2.3 19:36:22 10° SSW 19:41:58 62° ESE 19:47:35 10° NE
ASTEX 1 3.7 19:42:27 10° NNE 19:47:12 50° E 19:51:54 10° SSE
Cosmos 1354 Rocket 4.2 19:42:45 10° S 19:47:49 54° ESE 19:52:54 10° NNE
Cosmos 2297 Rocket 4.0 19:46:39 10° NNW 19:50:59 22° NE 19:55:18 10° E
Cosmos 1340 Rocket 4.2 19:53:33 10° NNW 19:57:05 34° W 20:00:33 10° SSW
Ariane Rocket 3.0 19:53:08 10° SSE 19:58:10 73° ENE 20:03:13 10° NNW
SAR-Lupe-2 3.6 19:55:21 10° SSE 19:58:56 78° ENE 20:02:33 10° NNW
CZ-4C R/B 2.4 19:56:29 10° S 20:00:22 34° ESE 20:05:10 10° NE
Okean 2 Rocket 3.2 19:56:26 10° NNW 20:00:50 77° W 20:05:10 10° S
ISS -3.7 19:57:31 10° W 20:00:52 86° N 20:04:13 10° E
Cosmos 2098 Rocket 4.4 19:58:53 10° NNE 20:00:59 16° ENE 20:03:13 10° ESE
Cosmos 2263 4.2 19:57:33 10° SSW 20:03:09 67° ESE 20:08:44 10° NE
Cosmos 1869 3.9 19:59:49 10° NNW 20:03:17 47° W 20:06:41 10° S
Cosmos 2151 Rocket 4.2 20:03:10 10° NNW 20:07:35 55° W 20:11:58 10° S
Cosmos 1777 Rocket 4.2 20:03:00 10° SSW 20:08:13 76° WNW 20:13:26 10° NNE
BREEZE-M DEB (TANK) 3.2 20:07:06 10° SSW 20:09:30 27° SE 20:14:29 10° E
SOZ 4.2 20:08:33 10° WSW 20:10:54 54° SSE 20:13:18 10° E
Cosmos 44 3.4 20:08:06 10° SSW 20:12:09 42° ESE 20:16:21 10° NE
Nadezhda 4 Rocket 4.1 20:08:10 10° S 20:14:27 73° E 20:20:47 10° NNE
Okean 1 Rocket 3.2 20:10:37 10° NNW 20:14:59 71° W 20:19:18 10° S
Lacrosse 5 rocket 2.9 20:11:48 10° WNW 20:15:23 33° N 20:19:00 10° ENE
Helios 1A 3.7 20:12:56 10° N 20:16:48 52° WNW 20:20:37 10° SW
Cosmos 1515 3.2 20:16:36 10° N 20:19:08 44° ENE 20:20:37 20° SE
Cosmos 1975 Rocket 4.0 20:16:28 14° SSE 20:19:29 31° E 20:23:19 10° NNE
Cosmos 2221 Rocket 3.8 20:16:58 10° SSW 20:21:29 79° WNW 20:26:02 10° N
Cosmos 2285 Rocket 4.2 20:16:37 10° S 20:22:47 55° ESE 20:29:02 10° NNE
Cosmos 2227 Rocket 4.3 20:19:29 10° NNW 20:23:36 20° NE 20:27:43 10° E
Cosmos 2228 4.0 20:20:06 10° N 20:23:55 32° ENE 20:26:50 15° SE
Gbstr 26 Del rocket 3.6 20:20:20 10° W 20:25:17 89° N 20:31:27 10° ESE
Terra 3.6 20:21:28 10° SSW 20:25:27 27° W 20:29:27 10° NW
Cosmos 1455 Rocket 3.0 20:22:18 10° N 20:26:37 75° ENE 20:30:04 16° SSE
Cosmos 1867 4.3 20:22:40 10° S 20:27:27 32° ESE 20:32:16 10° NE
SPOT 3 Rocket 4.0 20:23:40 10° S 20:28:48 60° WSW 20:33:59 10° NNW
Cosmos 2026 Rocket 4.1 20:27:46 12° SSE 20:33:13 57° E 20:39:09 10° NNE
Cosmos 1428 Rocket 4.5 20:33:38 10° S 20:39:47 86° E 20:46:02 10° N
Cosmos 1898 Rocket 3.9 20:36:10 14° S 20:40:15 43° ESE 20:45:11 10° NE
ATLAS 5 CENTAUR R/B 4.3 20:38:42 10° NNW 20:40:37 14° N 20:42:42 10° NNE
Cosmos 1538 Rocket 4.2 20:38:16 10° NNW 20:43:38 72° WSW 20:47:45 17° SSE
Cosmos 1553 Rocket 4.5 20:40:34 10° N 20:46:39 50° ENE 20:51:17 18° SE
USA 81 4.2 20:44:48 17° SSE 20:48:46 59° E 20:53:57 10° NNE
Cosmos 1812 3.6 20:48:28 10° NNW 20:51:22 33° W 20:53:43 14° SSW
PSLV R/B 4.4 20:49:20 15° SSW 20:51:33 37° W 20:54:30 10° NNW
Cosmos 1092 Rocket 4.0 20:50:30 14° S 20:56:06 75° E 21:02:25 10° NNE
ARIANE 5 R/B 3.6 20:53:15 18° SE 20:56:06 37° ENE 21:00:12 10° N
Cosmos 1900 4.3 20:52:37 10° SSW 20:57:36 70° SE 21:02:41 10° NE
ATLAS 2AS CENTAUR R/B 4.2 20:52:31 10° NW 20:58:43 34° NNE 21:04:48 10° E
BlueWalker 3 1.7 20:56:37 10° WNW 21:00:18 88° NNE 21:03:04 17° ESE
Cosmos 1025 Rocket 4.4 20:56:26 10° SW 21:00:28 37° WNW 21:04:33 10° N
Cosmos 1656 4.3 21:05:49 21° SSE 21:08:54 38° ESE 21:13:58 10° NE
DELTA 2 DEB (DPAF) 3.9 21:06:03 10° NNE 21:09:56 59° ESE 21:11:59 26° S
Aureole 1 Rocket 4.3 21:04:05 10° SSW 21:10:43 86° ESE 21:18:18 10° NNE
CZ-4C R/B 3.9 21:07:40 10° NNE 21:11:05 36° E 21:12:23 27° SE
Cosmos 2263 Rocket 4.2 21:07:01 10° NNW 21:11:23 22° NE 21:15:43 10° E
RESURS DK-1 2.4 21:11:03 10° NNW 21:15:02 70° NE 21:17:10 26° SE
Cosmos 1544 Rocket 3.5 21:12:44 10° N 21:17:08 79° E 21:19:31 27° SSE
USA 215 3.5 21:13:01 10° ESE 21:19:31 71° NNE 21:26:02 10° WNW
Cosmos 372 Rocket 3.9 21:14:58 11° SSW 21:19:50 87° WNW 21:24:57 10° NNE
DNEPR-1 R/B 4.2 21:18:34 10° NW 21:22:33 41° WSW 21:24:33 25° S
Cosmos 2369 Rocket 4.1 21:21:20 10° WSW 21:26:23 32° NW 21:31:26 10° NNE
Cosmos 1400 Rocket 2.6 21:22:52 10° N 21:26:42 75° ENE 21:28:20 32° SSE
Cosmos 2058 3.8 21:25:46 25° SE 21:27:03 31° E 21:30:34 10° NNE
Cosmos 2112 Rocket 4.0 21:23:40 10° NNW 21:28:58 81° ENE 21:32:07 25° SSE
Cosmos 1782 3.3 21:30:11 10° N 21:33:43 43° ENE 21:35:07 29° SE
Cosmos 2297 Rocket 2.2 21:30:15 10° NNW 21:35:56 80° ENE 21:39:27 24° SE
ISS -3.2 21:34:18 10° W 21:37:27 38° SSW 21:37:42 37° SSW
Cosmos 1937 Rocket 3.4 21:34:18 17° SSW 21:38:14 90° ESE 21:43:24 10° NNE
Cosmos 2098 Rocket 3.5 21:36:10 10° NNW 21:39:10 37° W 21:40:46 23° SW
Cosmos 1680 Rocket 3.6 21:34:21 10° NNW 21:39:37 73° WSW 21:42:31 27° S
Cosmos 1862 4.5 21:43:53 23° ESE 21:44:42 25° E 21:47:44 10° NE
ALOS 2 2.8 21:44:36 29° SE 21:46:44 63° ENE 21:51:06 10° N
Cosmos 1980 Rocket 4.0 21:46:39 13° ESE 21:48:18 14° E 21:51:10 10° ENE
CZ-4C R/B 2.8 21:43:49 10° WSW 21:48:20 52° NW 21:54:10 10° NE
Cosmos 858 Rocket 4.4 21:48:12 21° SSW 21:51:40 87° ESE 21:56:53 10° NNE
Cosmos 1697 Rocket 3.6 21:50:21 25° SE 21:52:27 32° ESE 21:57:25 10° NE
Lacrosse 5 rocket 1.9 21:49:29 10° WNW 21:53:20 52° NNE 21:57:12 10° E
Cosmos 2360 4.4 21:51:09 26° S 21:54:16 57° ESE 21:59:50 10° NE
MetOp-A 3.4 21:55:24 35° S 21:56:48 61° WSW 22:00:34 10° NNW
Cosmos 1356 Rocket 4.4 21:54:12 10° N 21:57:57 35° ENE 21:59:46 23° ESE
Cosmos 2228 4.4 21:57:16 10° NNW 22:00:54 29° W 22:03:10 18° SW
Cosmos 2227 Rocket 2.4 22:03:01 10° NNW 22:08:43 69° ENE 22:12:21 23° SE
GEOS 3 Rocket 4.2 22:03:50 10° NE 22:08:48 40° ESE 22:10:45 30° SSE
Cosmos 1867 4.1 22:05:24 10° WSW 22:10:47 59° NW 22:16:13 10° NE
EO 1 Delta rocket 4.4 22:08:59 27° SE 22:11:24 55° ENE 22:16:31 10° N
Cosmos 1441 Rocket 4.3 22:11:11 24° ESE 22:11:41 25° E 22:14:36 10° NE
Gbstr 26 Del rocket 4.0 22:06:32 10° WNW 22:11:48 50° SSW 22:15:20 25° SSE
Cosmos 494 Rocket 4.1 22:07:04 10° NNW 22:12:15 65° WSW 22:14:39 31° S
NOSS 7 (A) 4.4 22:11:58 10° NW 22:14:49 67° SW 22:15:01 64° SSW
BREEZE-M DEB (TANK) 2.4 22:12:39 10° W 22:18:35 70° S 22:19:47 32° ESE
CZ-2C R/B 4.4 22:16:03 10° N 22:20:40 53° WNW 22:23:39 21° SW
Cosmos 1048 Rocket 4.0 22:15:57 10° NNW 22:21:22 89° WSW 22:24:05 30° SSE
Cosmos 2266 Rocket 4.1 22:19:20 25° SSW 22:23:19 82° W 22:29:47 10° N
Spot 4 4.3 22:21:20 29° SSW 22:23:30 50° W 22:28:12 10° NNW
ATLAS 5 CENTAUR R/B 3.9 22:21:36 10° NNW 22:24:46 22° NNE 22:28:25 10° ENE
Landsat 5 3.4 22:24:37 10° N 22:28:24 66° WNW 22:29:50 35° SW
Cosmos-2242 3.8 22:27:30 10° N 22:31:32 41° ENE 22:33:26 26° SE
ARIANE 5 R/B 3.9 22:30:39 22° SW 22:32:29 30° W 22:36:25 10° NNW
Cosmos 2315 Rocket 4.0 22:26:21 10° NNW 22:32:46 80° W 22:36:19 28° S
Cosmos 1315 Rocket 2.8 22:33:43 10° N 22:37:34 69° ENE 22:38:48 40° SSE
BlueWalker 3 3.1 22:34:34 10° W 22:36:56 25° WSW 22:36:56 25° WSW
Cosmos 1933 3.3 22:42:47 10° NNW 22:46:39 65° W 22:47:44 43° SSW
ATLAS 2AS CENTAUR R/B 2.7 22:43:44 10° NW 22:50:34 79° NE 22:57:03 11° SE
RESURS DK-1 4.3 22:49:45 10° WNW 22:52:00 15° WSW 22:52:29 14° WSW
CZ-2C R/B 4.2 22:50:34 10° NE 22:54:40 28° E 22:56:42 21° SE
Cosmos 2221 4.3 22:51:18 10° NNE 22:54:49 24° ENE 22:57:43 13° ESE
USA 290 3.1 22:52:19 10° NNW 22:55:31 46° ENE 22:56:40 31° ESE
Cosmos 2263 Rocket 2.2 22:50:31 10° NNW 22:56:12 81° ENE 22:59:46 23° SE
H-2A R/B 3.9 22:56:06 16° ESE 22:58:31 29° ENE 23:01:55 10° N
USA 215 3.3 22:58:07 20° SSE 23:02:42 57° SW 23:09:08 10° WNW
Cosmos 2058 4.4 23:01:15 17° WSW 23:03:17 26° WNW 23:06:40 10° N
Cosmos 2082 4.0 22:59:23 10° NNW 23:05:04 64° NE 23:09:36 16° SE
Cosmos 1602 4.3 23:07:46 30° WSW 23:08:32 35° WNW 23:11:33 10° N
Cosmos 1932 4.4 23:08:26 26° SSW 23:12:13 77° SE 23:18:38 10° NE
Cosmos 1655 Rocket 4.3 23:09:38 25° SSW 23:13:30 63° WNW 23:19:51 10° N
Nadezhda 1 Rocket 4.3 23:09:54 10° N 23:16:04 60° ENE 23:20:18 20° SSE
Cosmos 2297 Rocket 3.7 23:15:17 10° NW 23:19:19 20° W 23:21:13 17° SW
SL-16 R/B 4.1 23:17:31 12° SE 23:20:28 18° E 23:24:08 10° ENE
Cosmos 2219 3.1 23:15:33 10° NNW 23:21:16 82° WSW 23:24:45 24° SSE
Cosmos 2058 Rocket 3.6 23:18:04 10° NNW 23:22:22 48° W 23:23:59 32° SSW
Cosmos 2333 Rocket 4.4 23:23:07 10° ESE 23:25:15 12° E 23:27:23 10° ENE
Lacrosse 5 rocket 1.5 23:26:57 10° WNW 23:30:41 42° SW 23:31:05 41° SSW
Cosmos 1980 Rocket 2.1 23:28:23 29° SSW 23:31:20 78° ESE 23:36:58 10° NNE
Cosmos 1697 Rocket 3.3 23:32:03 18° SW 23:36:10 54° NW 23:41:45 10° NNE
Resurs 1-4 Rocket 4.5 23:34:41 10° ENE 23:37:02 13° E 23:39:22 10° ESE
CZ-4C R/B 4.5 23:33:27 10° WNW 23:37:59 27° N 23:43:34 10° NE
CZ-2C R/B 2.7 23:36:53 26° SSE 23:40:12 83° WSW 23:45:51 10° NNW
SeaSat 1 4.3 23:41:34 10° ESE 23:45:49 30° NE 23:50:04 10° NNW
GEOS 3 Rocket 4.2 23:41:47 10° NE 23:46:55 56° NW 23:51:47 12° WSW
Cosmos 1602 Rocket 3.6 23:45:39 31° S 23:47:36 69° E 23:51:57 10° NNE
IDEFIX/ARIANE 42P 3.8 23:43:13 10° NNE 23:47:51 32° E 23:51:12 16° SSE
Cosmos 1758 Rocket 3.5 23:47:54 33° SSW 23:49:52 81° W 23:54:22 10° N
Cosmos 1626 Rocket 3.7 23:49:13 31° SSW 23:51:10 64° WNW 23:55:34 10° N
Cosmos 1844 Rocket 3.4 23:46:08 10° NNW 23:51:39 53° NE 23:57:07 10° SE
Cosmos 2227 Rocket 3.5 23:47:49 10° NW 23:52:15 24° WSW 23:54:06 20° SW
CENTAUR R/B 3.9 23:49:44 16° SSE 23:52:49 24° ESE 23:57:56 10° ENE
CZ-2D R/B 4.3 23:50:31 10° NE 23:53:36 16° E 23:56:40 10° SE
Geosat 4.1 23:49:13 10° NNE 23:54:13 71° NW 23:57:21 23° SW
